When you browse on this site, cookies collect data to enhance your experience and personalize the content and advertising you see.
Visit our Privacy Policy to learn more. By continuing to use the site, you agree to this use of cookies and data.
  • In Germany
  • List of Countries
  • For 7 days
  • Water Temperature
  • Satellite Maps
  • Weather Map
  • Weather Widgets
  • user-avatar
    Login

    Hourly Weather Campo Grande

    Today, 20 January, Sunday

    Time Temperature Precipitation Wind Pressure Humidity
    00:00 +23°C° 0 mm 1 mps 710 mmHg 92%
    01:00 +23°C° 0 mm 1 mps 710 mmHg 92%
    02:00 +23°C° 0 mm 1 mps 710 mmHg 92%
    03:00 +23°C° 1.4 mm 1 mps 710 mmHg 93%
    04:00 +22°C° 1.4 mm 1 mps 710 mmHg 94%
    05:00 +22°C° 1.4 mm 1 mps 710 mmHg 95%
    06:00 +23°C° 0.4 mm 1 mps 711 mmHg 91%
    07:00 +25°C° 0.4 mm 1 mps 711 mmHg 87%
    08:00 +26°C° 0 mm 1 mps 712 mmHg 83%
    09:00 +28°C° 0.5 mm 1 mps 711 mmHg 77%
    10:00 +29°C° 0.5 mm 1 mps 711 mmHg 71%
    11:00 +29°C° 0.5 mm 0 mps 711 mmHg 65%
    12:00 +31°C° 1.1 mm 1 mps 711 mmHg 64%
    13:00 +31°C° 1.1 mm 1 mps 710 mmHg 63%
    14:00 +31°C° 1.1 mm 1 mps 710 mmHg 63%
    15:00 +31°C° 1.1 mm 1 mps 710 mmHg 65%
    16:00 +30°C° 1.1 mm 1 mps 710 mmHg 67%
    17:00 +28°C° 1.1 mm 0 mps 709 mmHg 69%
    18:00 +28°C° 0.2 mm 1 mps 709 mmHg 72%
    19:00 +27°C° 0.2 mm 1 mps 710 mmHg 76%
    20:00 +26°C° 0.2 mm 1 mps 710 mmHg 80%
    21:00 +26°C° 0 mm 1 mps 710 mmHg 80%
    22:00 +25°C° 0 mm 1 mps 710 mmHg 80%
    23:00 +25°C° 0 mm 1 mps 710 mmHg 80%

    Tomorrow, 21 January, Monday

    Time Temperature Precipitation Wind Pressure Humidity
    00:00 +25°C° 0 mm 1 mps 710 mmHg 81%
    01:00 +25°C° 0 mm 1 mps 710 mmHg 82%
    02:00 +24°C° 0 mm 1 mps 709 mmHg 83%
    03:00 +24°C° 0 mm 1 mps 710 mmHg 83%
    04:00 +24°C° 0 mm 2 mps 710 mmHg 84%
    05:00 +24°C° 0 mm 2 mps 710 mmHg 85%
    06:00 +25°C° 0 mm 2 mps 711 mmHg 80%
    07:00 +27°C° 0 mm 2 mps 711 mmHg 75%
    08:00 +29°C° 0 mm 2 mps 712 mmHg 70%
    09:00 +30°C° 0 mm 2 mps 712 mmHg 63%
    10:00 +32°C° 0 mm 2 mps 712 mmHg 56%
    11:00 +34°C° 0 mm 3 mps 712 mmHg 49%
    12:00 +35°C° 0 mm 3 mps 712 mmHg 47%
    13:00 +35°C° 0 mm 3 mps 711 mmHg 44%
    14:00 +36°C° 0 mm 3 mps 711 mmHg 42%
    15:00 +35°C° 0 mm 2 mps 710 mmHg 46%
    16:00 +33°C° 0 mm 1 mps 710 mmHg 50%
    17:00 +32°C° 0 mm 1 mps 709 mmHg 55%
    18:00 +31°C° 0 mm 1 mps 710 mmHg 56%
    19:00 +28°C° 0 mm 0 mps 710 mmHg 57%
    20:00 +26°C° 0 mm 0 mps 710 mmHg 59%
    21:00 +26°C° 0 mm 0 mps 710 mmHg 60%
    22:00 +26°C° 0 mm 0 mps 710 mmHg 61%
    23:00 +25°C° 0 mm 0 mps 711 mmHg 62%

    Day after tomorrow, 22 January, Tuesday

    Time Temperature Precipitation Wind Pressure Humidity
    00:00 +25°C° 0 mm 0 mps 710 mmHg 63%
    01:00 +27°C° 0 mm 1 mps 710 mmHg 63%
    02:00 +26°C° 0 mm 1 mps 710 mmHg 64%
    03:00 +26°C° 0 mm 1 mps 710 mmHg 64%
    04:00 +26°C° 0 mm 1 mps 710 mmHg 65%
    05:00 +26°C° 0 mm 1 mps 710 mmHg 66%
    06:00 +28°C° 0 mm 1 mps 711 mmHg 63%
    07:00 +29°C° 0 mm 2 mps 712 mmHg 61%
    08:00 +31°C° 0 mm 2 mps 712 mmHg 59%
    09:00 +32°C° 0 mm 2 mps 712 mmHg 54%
    10:00 +35°C° 0 mm 2 mps 712 mmHg 50%
    11:00 +36°C° 0 mm 2 mps 712 mmHg 45%
    12:00 +36°C° 0 mm 2 mps 712 mmHg 47%
    13:00 +35°C° 0 mm 2 mps 711 mmHg 49%
    14:00 +35°C° 0 mm 2 mps 710 mmHg 51%
    15:00 +34°C° 0 mm 1 mps 710 mmHg 52%
    16:00 +34°C° 0 mm 1 mps 709 mmHg 53%
    17:00 +32°C° 0 mm 0 mps 709 mmHg 54%
    18:00 +33°C° 0 mm 1 mps 709 mmHg 56%
    19:00 +31°C° 0 mm 1 mps 709 mmHg 58%
    20:00 +29°C° 0 mm 1 mps 710 mmHg 59%
    21:00 +29°C° 0 mm 1 mps 710 mmHg 60%
    22:00 +29°C° 0 mm 1 mps 710 mmHg 61%
    23:00 +29°C° 0 mm 1 mps 711 mmHg 62%

    23 January, Wednesday

    Time Temperature Precipitation Wind Pressure Humidity
    00:00 +29°C° 0 mm 1 mps 710 mmHg 64%
    01:00 +28°C° 0 mm 2 mps 710 mmHg 66%
    02:00 +28°C° 0 mm 2 mps 709 mmHg 68%
    03:00 +27°C° 0 mm 2 mps 709 mmHg 70%
    04:00 +26°C° 0 mm 2 mps 709 mmHg 71%
    05:00 +26°C° 0 mm 1 mps 709 mmHg 73%
    06:00 +28°C° 0 mm 2 mps 710 mmHg 68%
    07:00 +30°C° 0 mm 2 mps 711 mmHg 63%
    08:00 +32°C° 0 mm 2 mps 712 mmHg 58%
    09:00 +34°C° 0 mm 2 mps 712 mmHg 53%
    10:00 +35°C° 0 mm 1 mps 712 mmHg 47%
    11:00 +36°C° 0 mm 1 mps 712 mmHg 41%
    12:00 +36°C° 0 mm 1 mps 711 mmHg 41%
    13:00 +36°C° 0 mm 1 mps 710 mmHg 40%
    14:00 +37°C° 0 mm 1 mps 709 mmHg 40%
    15:00 +33°C° 0 mm 0 mps 709 mmHg 43%
    16:00 +32°C° 0 mm 0 mps 709 mmHg 46%
    17:00 +31°C° 0 mm 0 mps 708 mmHg 49%
    18:00 +33°C° 0 mm 1 mps 709 mmHg 49%
    19:00 +32°C° 0 mm 1 mps 709 mmHg 48%
    20:00 +32°C° 0 mm 1 mps 710 mmHg 48%
    21:00 +31°C° 0 mm 2 mps 710 mmHg 50%
    22:00 +31°C° 0 mm 2 mps 710 mmHg 52%
    23:00 +30°C° 0 mm 2 mps 710 mmHg 53%

    24 January, Thursday

    Time Temperature Precipitation Wind Pressure Humidity
    00:00 +29°C° 0 mm 2 mps 710 mmHg 58%
    01:00 +29°C° 0 mm 2 mps 709 mmHg 62%
    02:00 +28°C° 0 mm 2 mps 708 mmHg 67%
    03:00 +27°C° 0 mm 2 mps 708 mmHg 69%
    04:00 +27°C° 0 mm 2 mps 709 mmHg 70%
    05:00 +27°C° 0 mm 2 mps 709 mmHg 72%
    06:00 +28°C° 0.1 mm 2 mps 710 mmHg 70%
    07:00 +29°C° 0.1 mm 3 mps 710 mmHg 67%
    08:00 +31°C° 0.1 mm 3 mps 711 mmHg 65%
    09:00 +32°C° 0.1 mm 2 mps 711 mmHg 58%
    10:00 +35°C° 0.1 mm 2 mps 711 mmHg 52%
    11:00 +36°C° 0.1 mm 1 mps 711 mmHg 46%
    12:00 +36°C° 0 mm 1 mps 710 mmHg 45%
    13:00 +36°C° 0 mm 1 mps 709 mmHg 45%
    14:00 +36°C° 0 mm 1 mps 708 mmHg 45%
    15:00 +35°C° 0 mm 1 mps 708 mmHg 47%
    16:00 +34°C° 0 mm 1 mps 708 mmHg 50%
    17:00 +33°C° 0 mm 1 mps 707 mmHg 52%
    18:00 +32°C° 0 mm 1 mps 708 mmHg 54%
    19:00 +31°C° 0 mm 2 mps 708 mmHg 55%
    20:00 +31°C° 0 mm 2 mps 708 mmHg 57%
    21:00 +30°C° 0.1 mm 2 mps 708 mmHg 60%
    22:00 +29°C° 0.1 mm 2 mps 708 mmHg 63%
    23:00 +28°C° 0.1 mm 2 mps 709 mmHg 66%

    25 January, Friday

    Time Temperature Precipitation Wind Pressure Humidity
    00:00 +28°C° 0.1 mm 2 mps 708 mmHg 69%
    01:00 +27°C° 0.1 mm 2 mps 708 mmHg 71%
    02:00 +27°C° 0.1 mm 2 mps 707 mmHg 74%
    03:00 +26°C° 0.2 mm 2 mps 707 mmHg 75%
    04:00 +26°C° 0.2 mm 2 mps 707 mmHg 76%
    05:00 +26°C° 0.2 mm 2 mps 707 mmHg 77%
    06:00 +27°C° 0.7 mm 2 mps 708 mmHg 74%
    07:00 +29°C° 0.7 mm 2 mps 709 mmHg 71%
    08:00 +30°C° 0.7 mm 3 mps 709 mmHg 68%
    09:00 +31°C° 0.9 mm 3 mps 709 mmHg 62%
    10:00 +34°C° 0.9 mm 3 mps 709 mmHg 57%
    11:00 +35°C° 0.9 mm 3 mps 709 mmHg 51%
    12:00 +35°C° 0 mm 3 mps 709 mmHg 52%
    13:00 +35°C° 0 mm 2 mps 708 mmHg 53%
    14:00 +35°C° 0 mm 2 mps 707 mmHg 53%
    15:00 +35°C° 0 mm 2 mps 707 mmHg 54%
    16:00 +35°C° 0 mm 2 mps 707 mmHg 55%
    17:00 +34°C° 0 mm 2 mps 707 mmHg 56%
    18:00 +31°C° 2.6 mm 2 mps 707 mmHg 64%
    19:00 +29°C° 2.6 mm 2 mps 707 mmHg 72%
    20:00 +27°C° 2.6 mm 2 mps 707 mmHg 80%
    21:00 +27°C° 2.9 mm 2 mps 708 mmHg 81%
    22:00 +27°C° 2.9 mm 2 mps 708 mmHg 82%
    23:00 +26°C° 2.9 mm 1 mps 709 mmHg 84%
    Show more